This demonstration page uses our WeatherBlox Daily Observations layout. Learn more.

Left ArrowRight Arrow

Hourly Observations for April 27, 2016

Temp ( °F °C ) Dew Point ( °F °C ) Humidity (%) Winds ( mph kmh ) Pressure ( in mb ) Visibility ( mi km ) Precip ( " mm )
12:13 am 00:13 Cloudy with Thunderstorms 61 16.1 57 13.9 87 87 ENE 14 22 29.59 1002 8 13 0.02 0.51
12:34 am 00:34 Cloudy with Nearby Thunderstorms 61 16 57 14 88 88 E 14 22 29.59 1002 7 11 0.00 0.00
12:43 am 00:43 Cloudy with Light Rain 60 15.6 56 13.3 86 86 ESE 18 30 29.59 1002 7 11 0.08 2.03
12:54 am 00:54 Cloudy with Light Rain 59 15 56 13.3 90 90 E 16 26 29.58 1002 8 13 0.09 2.29
1:54 am 01:54 Cloudy with Light Rain 59 15 56 13.3 90 90 E 14 22 29.53 1000 7 11 0.05 1.27
2:03 am 02:03 Cloudy with Light Rain 59 15 55 13 88 88 VRB 3 6 29.56 1001 6 10 0.00 0.00
2:12 am 02:12 Cloudy with Light Rain 59 15 55 13 88 88 VRB 3 6 29.56 1001 6 10 0.00 0.00
2:54 am 02:54 Cloudy with Light Rain 59 15 56 13.3 90 90 SE 9 15 29.53 1000 7 11 0.06 1.52
3:30 am 03:30 Cloudy with Rain 58 14.4 57 13.9 97 97 ESE 7 11 29.53 1000 3 5 0.11 2.79
3:54 am 03:54 Cloudy with Heavy Rain 58 14.4 57 13.9 97 97 ENE 5 7 29.47 998 2 3 0.20 5.08
4:02 am 04:02 Cloudy with Heavy Rain 58 14.4 57 13.9 97 97 E 12 19 29.47 998 1 2 0.13 3.30
4:09 am 04:09 Cloudy with Rain 59 15 57 13.9 93 93 E 6 9 29.47 998 2 3 0.23 5.84
4:17 am 04:17 Cloudy with Light Rain 59 15 57 13.9 93 93 ESE 12 19 29.47 998 6 10 0.24 6.10
4:26 am 04:26 Cloudy with Light Rain 59 15 56 13.3 90 90 E 17 28 29.47 998 10 16 0.24 6.10
4:54 am 04:54 Cloudy 58 14.4 56 13.3 93 93 ENE 26 43 29.35 994 10 16 0.25 6.35
5:31 am 05:31 Cloudy 58 14.4 55 12.8 90 90 SE 14 22 29.50 999 10 16 0.00 0.00
5:54 am 05:54 Cloudy with Light Rain 56 13.3 54 12.2 93 93 ESE 21 33 29.47 998 8 13 0.00 0.03
6:54 am 06:54 Cloudy with Rain 55 12.8 53 11.7 93 93 E 17 28 29.46 998 3 5 0.01 0.25
7:18 am 07:18 Cloudy with Rain 55 12.8 53 11.7 93 93 ESE 18 30 29.47 998 2 3 0.02 0.51
7:34 am 07:34 Cloudy with Light Rain 55 13 54 12 94 94 ESE 15 24 29.50 999 3 4 0.00 0.00
7:54 am 07:54 Cloudy with Light Rain 56 13.3 54 12.2 93 93 ESE 15 24 29.47 998 5 8 0.10 2.54
8:08 am 08:08 Cloudy with Light Rain 55 13 54 12 94 94 ESE 14 22 29.47 998 6 10 0.00 0.00
8:29 am 08:29 Cloudy with Light Rain 57 14 55 13 94 94 SE 13 20 29.47 998 10 16 0.00 0.00
8:38 am 08:38 Cloudy 57 14 55 13 94 94 SSE 12 19 29.47 998 10 16 0.00 0.00
8:54 am 08:54 Cloudy 59 15 56 13.3 90 90 SSE 16 26 29.44 997 10 16 0.01 0.25
9:11 am 09:11 Cloudy 59 15 54 12.2 83 83 S 20 31 29.44 997 10 16 0.00 0.00
9:54 am 09:54 Cloudy 62 16.7 56 13.3 80 80 SE 17 28 29.42 996 10 16 0.00 0.00
10:19 am 10:19 Partly Cloudy 63 17 54 12 73 73 SSE 17 28 29.41 996 10 16 0.00 0.00
10:54 am 10:54 Mostly Sunny 64 17.8 55 12.8 73 73 S 16 26 29.41 996 10 16 0.00 0.00
11:54 am 11:54 Mostly Sunny 62 16.7 53 11.7 73 73 SSW 17 28 29.42 996 10 16 0.00 0.00
12:39 pm 12:39 Mostly Cloudy 62 16.7 52 11.1 70 70 SSW 20 31 29.44 997 10 16 0.00 0.00
12:54 pm 12:54 Cloudy 61 16.1 50 10 67 67 S 21 33 29.45 997 10 16 0.00 0.00
1:03 pm 13:03 Cloudy 63 17 50 10 64 64 SSW 20 31 29.47 998 10 16 0.00 0.00
1:11 pm 13:11 Cloudy 63 17 50 10 64 64 SSW 24 39 29.47 998 10 16 0.00 0.00
1:54 pm 13:54 Cloudy 62 16.7 48 8.9 60 60 S 18 30 29.45 997 10 16 0.00 0.00
2:54 pm 14:54 Cloudy 61 16.1 47 8.3 60 60 SSW 22 35 29.47 998 10 16 0.00 0.00
3:54 pm 15:54 Cloudy 56 13.3 44 6.7 65 65 SW 26 43 29.49 999 10 16 0.00 0.00
4:54 pm 16:54 Cloudy 52 11.1 44 6.7 75 75 SSW 21 33 29.51 999 10 16 0.00 0.00
5:08 pm 17:08 Cloudy 52 11 45 7 77 77 SW 17 28 29.56 1001 10 16 0.00 0.00
5:54 pm 17:54 Cloudy 52 11.1 43 6.1 72 72 SW 18 30 29.51 999 10 16 0.00 0.03
6:54 pm 18:54 Cloudy 50 10 42 5.6 74 74 SW 17 28 29.52 1000 10 16 0.00 0.00
7:04 pm 19:04 Cloudy 48 9 43 6 82 82 SW 16 26 29.56 1001 10 16 0.00 0.00
7:34 pm 19:34 Cloudy 48 9 43 6 82 82 SW 12 19 29.56 1001 10 16 0.00 0.00
7:54 pm 19:54 Cloudy 47 8.3 42 5.6 83 83 SSW 9 15 29.52 1000 10 16 0.00 0.00
8:33 pm 20:33 Cloudy 46 7.8 43 6.1 89 89 S 12 19 29.56 1001 10 16 0.00 0.00
8:44 pm 20:44 Cloudy 46 8 43 6 87 87 S 8 13 29.56 1001 10 16 0.00 0.00
8:54 pm 20:54 Cloudy 46 7.8 43 6.1 89 89 S 8 13 29.54 1000 10 16 0.00 0.00
9:36 pm 21:36 Cloudy with Light Rain 47 8.3 43 6.1 86 86 Calm 29.59 1002 10 16 0.00 0.03
9:54 pm 21:54 Cloudy 47 8.3 43 6.1 86 86 ESE 6 9 29.57 1001 10 16 0.00 0.03
10:01 pm 22:01 Cloudy 46 8 43 6 87 87 Calm 29.59 1002 10 16 0.00 0.00
10:12 pm 22:12 Cloudy 46 8 43 6 87 87 Calm 29.59 1002 10 16 0.00 0.00
10:54 pm 22:54 Cloudy 47 8.3 43 6.1 86 86 W 5 7 29.60 1002 10 16 0.00 0.00
11:23 pm 23:23 Cloudy 47 8.3 44 6.7 90 90 SSW 5 7 29.62 1003 10 16 0.00 0.00
11:35 pm 23:35 Cloudy 47 8.3 44 6.7 90 90 SSW 5 7 29.62 1003 8 13 0.00 0.00
11:54 pm 23:54 Cloudy 48 8.9 45 7.2 89 89 SSW 5 7 29.61 1003 9 14 0.00 0.00

Powered by AerisWeather